GW3666 Weather Reports


time (UTC)temp
F
wind
direction
speed
knots
gust
knots
rain 1hr
in
rain 24hr
in
rain mn
in
humidity
%
barometer
mb
20260503210618 83 330 1.7 2.6 0.00 0.00 0.00 46 1011.3
20260503210115 83 12 2.6 2.6 0.00 0.00 0.00 48 1011.2
20260503205611 83 332 3.5 5.2 0.00 0.00 0.00 47 1011.2
20260503205107 82 318 3.5 4.3 0.00 0.00 0.00 48 1011.3
20260503204604 82 332 2.6 4.3 0.00 0.00 0.00 53 1011.6
20260503204101 81 342 2.6 2.6 0.00 0.00 0.00 53 1011.5
20260503203558 82 343 3.5 5.2 0.00 0.00 0.00 49 1011.6
20260503203055 82 342 1.7 2.6 0.00 0.00 0.00 52 1011.7
20260503202553 82 10 3.5 4.3 0.00 0.00 0.00 52 1011.6
20260503202051 85 345 0.9 1.7 0.00 0.00 0.00 50 1011.7
20260503201549 81 25 1.7 1.7 0.00 0.00 0.00 48 1012.0
20260503201046 82 346 3.5 5.2 0.00 0.00 0.00 54 1012.0
20260503200542 81 348 0.0 0.0 0.00 0.00 0.00 54 1011.7
20260503200039 82 324 3.5 4.3 0.00 0.00 0.00 53 1012.1
20260503195536 80 308 2.6 2.6 0.00 0.00 0.00 50 1012.2
20260503195032 82 351 0.9 0.9 0.00 0.00 0.00 54 1012.3
20260503194530 81 29 0.0 0.0 0.00 0.00 0.00 55 1012.1
20260503194030 80 344 1.7 4.3 0.00 0.00 0.00 56 1012.4
20260503193527 81 301 2.6 4.3 0.00 0.00 0.00 51 1012.2
20260503193022 81 336 2.6 2.6 0.00 0.00 0.00 55 1012.5
20260503192518 81 10 2.6 2.6 0.00 0.00 0.00 54 1012.5
20260503192014 81 57 0.9 1.7 0.00 0.00 0.00 51 1012.5
20260503191511 79 64 0.0 0.9 0.00 0.00 0.00 56 1012.5
20260503191008 78 28 0.9 0.9 0.00 0.00 0.00 60 1012.8
20260503190505 80 30 0.9 0.9 0.00 0.00 0.00 56 1012.8
20260503190002 79 355 1.7 1.7 0.00 0.00 0.00 57 1012.9
20260503185458 79 31 0.9 0.9 0.00 0.00 0.00 53 1012.9
20260503184957 79 36 0.9 1.7 0.00 0.00 0.00 53 1012.9
20260503184454 80 8 1.7 2.6 0.00 0.00 0.00 56 1012.9
20260503183950 78 16 2.6 2.6 0.00 0.00 0.00 57 1012.9
20260503183447 78 16 2.6 2.6 0.00 0.00 0.00 56 1013.0
20260503182944 79 19 0.9 0.9 0.00 0.00 0.00 58 1013.2
20260503182443 78 20 0.0 0.0 0.00 0.00 0.00 55 1013.1
20260503181940 77 20 0.0 0.0 0.00 0.00 0.00 57 1013.3
20260503181437 76 339 1.7 1.7 0.00 0.00 0.00 60 1013.2
20260503180933 76 37 0.9 0.9 0.00 0.00 0.00 60 1013.1
20260503180431 75 339 2.6 2.6 0.00 0.00 0.00 60 1013.3
20260503175928 75 30 0.9 1.7 0.00 0.00 0.00 63 1013.2
20260503175426 75 330 2.6 2.6 0.00 0.00 0.00 64 1013.3
20260503174921 74 343 1.7 1.7 0.00 0.00 0.00 64 1013.4
20260503174420 74 273 4.3 5.2 0.00 0.00 0.00 63 1013.4
20260503173914 74 330 0.9 0.9 0.00 0.00 0.00 63 1013.5
20260503173411 75 326 2.6 4.3 0.00 0.00 0.00 64 1013.4
20260503172908 73 325 1.7 2.6 0.00 0.00 0.00 66 1013.6
20260503172405 73 324 2.6 2.6 0.00 0.00 0.00 68 1013.5
20260503171901 74 303 1.7 1.7 0.00 0.00 0.00 64 1013.5
20260503171358 73 15 2.6 4.3 0.00 0.00 0.00 65 1013.5
20260503170855 73 353 2.6 2.6 0.00 0.00 0.00 66 1013.4
20260503170352 72 307 1.7 1.7 0.00 0.00 0.00 65 1013.6
20260503150744 59 8 0.0 0.0 0.00 0.00 0.00 99 1014.0
20260503150240 57 8 0.0 0.0 0.00 0.00 0.00 99 1013.9
20260503140204 48 8 0.0 0.0 0.00 0.00 0.00 99 1013.5
20260503131134 47 8 0.0 0.0 0.00 0.00 0.00 99 1013.5
20260503130632 46 8 0.0 0.0 0.00 0.00 0.00 99 1013.6
20260503130129 46 8 0.0 0.0 0.00 0.00 0.00 99 1013.4
20260503110522 49 32 0.0 0.0 0.00 0.00 0.00 99 1013.6
20260503090409 51 5 0.0 0.0 0.00 0.00 0.00 99 1014.2
20260503081335 52 312 0.0 0.0 0.00 0.00 0.00 99 1014.3
20260503080832 51 356 0.0 0.0 0.00 0.00 0.00 99 1014.7
20260503080329 51 48 0.0 0.0 0.00 0.00 0.00 99 1014.3
20260503072759 51 309 0.0 0.0 0.00 0.00 0.00 99 1014.4
20260503072256 52 309 0.0 0.0 0.00 0.00 0.00 99 1014.3
20260503071752 52 309 0.0 0.0 0.00 0.00 0.00 99 1014.6
20260503071250 52 309 0.0 0.0 0.00 0.00 0.00 99 1014.3
20260503070746 53 309 0.0 0.0 0.00 0.00 0.00 99 1014.4
20260503070244 53 310 0.0 0.0 0.00 0.00 0.00 99 1014.2
20260503060203 54 26 0.0 0.0 0.00 0.00 0.00 97 1014.4
20260503054650 55 25 0.0 0.0 0.00 0.00 0.00 96 1014.4
20260503054147 55 25 0.0 0.0 0.00 0.00 0.00 96 1014.2
20260503053645 55 25 0.0 0.0 0.00 0.00 0.00 95 1014.3
20260503053144 55 25 0.0 0.0 0.00 0.00 0.00 95 1014.6
20260503052640 55 25 0.0 0.0 0.00 0.00 0.00 94 1014.5
20260503052136 55 317 0.0 0.0 0.00 0.00 0.00 94 1014.5
20260503051631 55 317 0.0 0.0 0.00 0.00 0.00 93 1014.4
20260503051129 55 317 0.0 0.0 0.00 0.00 0.00 93 1014.4
20260503050625 56 317 0.0 0.0 0.00 0.00 0.00 94 1014.2
20260503050122 57 317 0.0 0.0 0.00 0.00 0.00 92 1014.4
20260503045620 57 317 0.0 0.0 0.00 0.00 0.00 92 1014.4
20260503045117 57 317 0.0 0.0 0.00 0.00 0.00 92 1014.2
20260503044614 57 317 0.0 0.0 0.00 0.00 0.00 92 1014.0
20260503044111 57 317 0.0 0.0 0.00 0.00 0.00 91 1014.2
20260503043607 58 317 0.0 0.0 0.00 0.00 0.00 91 1014.1
20260503043104 59 317 0.0 0.0 0.00 0.00 0.00 90 1013.9
20260503042601 59 317 0.0 0.0 0.00 0.00 0.00 90 1014.1
20260503042057 59 317 0.0 0.0 0.00 0.00 0.00 89 1013.8
20260503041554 60 317 0.0 0.0 0.00 0.00 0.00 88 1013.6
20260503041052 60 317 0.0 0.0 0.00 0.00 0.00 87 1013.8
20260503040549 60 317 0.0 0.0 0.00 0.00 0.00 87 1013.8
20260503040046 61 317 0.0 0.0 0.00 0.00 0.00 86 1013.4
20260503035543 61 317 0.0 0.0 0.00 0.00 0.00 86 1013.2
20260503035041 61 317 0.0 0.0 0.00 0.00 0.00 84 1013.3
20260503034537 62 317 0.0 0.0 0.00 0.00 0.00 84 1013.3
20260503034035 62 317 0.0 0.0 0.00 0.00 0.00 84 1013.0
20260503033532 63 354 0.0 0.0 0.00 0.00 0.00 82 1013.0
20260503033030 64 354 0.0 0.0 0.00 0.00 0.00 81 1012.9
20260503032528 64 354 0.0 0.0 0.00 0.00 0.00 80 1012.8
20260503032025 65 354 0.0 0.0 0.00 0.00 0.00 78 1013.0
20260503031523 66 354 0.0 0.0 0.00 0.00 0.00 77 1012.8
20260503031020 66 354 0.0 0.0 0.00 0.00 0.00 76 1012.7
20260503030516 68 355 0.0 0.0 0.00 0.00 0.00 75 1012.8
20260503030014 69 354 0.0 0.0 0.00 0.00 0.00 72 1012.6
20260503025510 70 354 0.0 0.0 0.00 0.00 0.00 73 1012.3
20260503025008 71 355 0.0 0.0 0.00 0.00 0.00 70 1012.5
20260503024503 72 301 0.0 0.0 0.00 0.00 0.00 65 1012.6
20260503024001 72 348 0.0 0.0 0.00 0.00 0.00 63 1012.6
20260503023457 73 335 0.9 0.9 0.00 0.00 0.00 62 1012.6
20260503022954 73 330 0.0 0.9 0.00 0.00 0.00 63 1012.4
20260503022450 74 330 0.9 0.9 0.00 0.00 0.00 60 1012.5
20260503021945 74 354 0.9 0.9 0.00 0.00 0.00 58 1012.5
20260503021442 74 301 1.7 1.7 0.00 0.00 0.00 61 1012.3
20260503020940 74 325 1.7 1.7 0.00 0.00 0.00 61 1012.3
20260503020437 74 29 1.7 1.7 0.00 0.00 0.00 60 1012.4
20260503015934 75 333 0.9 0.9 0.00 0.00 0.00 59 1012.2
20260503015430 74 346 1.7 1.7 0.00 0.00 0.00 58 1012.3
20260503014926 74 328 2.6 2.6 0.00 0.00 0.00 59 1012.5
20260503014423 74 337 1.7 2.6 0.00 0.00 0.00 60 1012.4
20260503013921 75 311 0.9 0.9 0.00 0.00 0.00 59 1012.4
20260503013413 75 1 0.0 0.9 0.00 0.00 0.00 60 1012.5
20260503012910 75 315 1.7 1.7 0.00 0.00 0.00 62 1012.4
20260503012408 75 347 1.7 1.7 0.00 0.00 0.00 57 1012.6
20260503011904 75 351 2.6 2.6 0.00 0.00 0.00 58 1012.4
20260503011401 75 348 3.5 4.3 0.00 0.00 0.00 59 1012.6
20260503010857 75 347 4.3 6.1 0.00 0.00 0.00 59 1012.4
20260503010354 75 336 2.6 4.3 0.00 0.00 0.00 59 1012.4
20260503005851 75 319 2.6 2.6 0.00 0.00 0.00 59 1012.3
20260503005349 75 38 0.0 0.9 0.00 0.00 0.00 59 1012.6
20260503004845 75 330 1.7 1.7 0.00 0.00 0.00 60 1012.7
20260503004342 76 338 2.6 4.3 0.00 0.00 0.00 60 1012.4
20260503003840 75 330 3.5 4.3 0.00 0.00 0.00 60 1012.7
20260503003336 76 328 2.6 4.3 0.00 0.00 0.00 58 1012.7
20260503002832 76 344 2.6 2.6 0.00 0.00 0.00 60 1012.6
20260503002325 77 43 0.0 0.0 0.00 0.00 0.00 57 1012.6
20260503001821 77 327 1.7 1.7 0.00 0.00 0.00 57 1012.5
20260503001317 78 327 6.1 6.1 0.00 0.00 0.00 55 1012.6
20260503000815 78 291 3.5 4.3 0.00 0.00 0.00 54 1012.4
20260503000313 77 321 1.7 1.7 0.00 0.00 0.00 57 1012.7
20260502235809 77 309 4.3 4.3 0.00 0.00 0.00 57 1012.8
20260502235306 77 329 2.6 2.6 0.00 0.00 0.00 55 1012.7
20260502234803 77 341 2.6 4.3 0.00 0.00 0.00 57 1012.7
20260502234300 77 310 5.2 7.0 0.00 0.00 0.00 56 1012.8
20260502233756 78 286 2.6 2.6 0.00 0.00 0.00 57 1013.0
20260502233253 77 28 3.5 5.2 0.00 0.00 0.00 59 1012.9
20260502232749 78 310 1.7 2.6 0.00 0.00 0.00 58 1013.2
20260502232246 78 11 2.6 4.3 0.00 0.00 0.00 55 1012.9
20260502231743 76 28 1.7 1.7 0.00 0.00 0.00 59 1013.4
20260502231240 77 268 3.5 4.3 0.00 0.00 0.00 60 1013.1
20260502230739 77 325 4.3 5.2 0.00 0.00 0.00 57 1013.4
20260502230237 78 5 3.5 5.2 0.00 0.00 0.00 58 1013.3
20260502225733 77 342 2.6 2.6 0.00 0.00 0.00 55 1013.3
20260502225230 78 358 4.3 5.2 0.00 0.00 0.00 53 1013.6
20260502224726 77 288 1.7 1.7 0.00 0.00 0.00 56 1013.5
20260502224223 76 333 2.6 2.6 0.00 0.00 0.00 60 1013.8
20260502223720 76 305 2.6 2.6 0.00 0.00 0.00 57 1013.8
20260502223218 76 288 3.5 4.3 0.00 0.00 0.00 62 1013.8
20260502222716 76 319 1.7 2.6 0.00 0.00 0.00 57 1014.0
20260502222212 76 336 2.6 2.6 0.00 0.00 0.00 57 1014.0
20260502221708 76 330 1.7 1.7 0.00 0.00 0.00 61 1014.0
20260502221205 75 9 2.6 4.3 0.00 0.00 0.00 60 1014.1
20260502220701 75 8 4.3 5.2 0.00 0.00 0.00 57 1014.2
20260502220158 75 8 2.6 5.2 0.00 0.00 0.00 61 1014.1
20260502215655 75 324 3.5 5.2 0.00 0.00 0.00 62 1014.3
20260502215151 75 319 2.6 4.3 0.00 0.00 0.00 61 1014.4
20260502214649 75 352 2.6 2.6 0.00 0.00 0.00 60 1014.2
20260502214146 74 303 2.6 2.6 0.00 0.00 0.00 61 1014.4
20260502213643 75 10 2.6 5.2 0.00 0.00 0.00 63 1014.4
20260502213140 73 9 2.6 2.6 0.00 0.00 0.00 64 1014.6
20260502212639 73 318 2.6 2.6 0.00 0.00 0.00 62 1014.6
20260502212137 75 338 0.9 0.9 0.00 0.00 0.00 61 1014.6
20260502211632 73 46 0.9 1.7 0.00 0.00 0.00 64 1014.7
20260502211130 75 301 1.7 1.7 0.00 0.00 0.00 63 1014.7